Flag for U.S.A. Weather past 2 weeks in Ocala, Florida, U.S.A.

Now
77 °F

Sunny.


Feels Like: 78 °F
Forecast: 51 / 76 °F
Wind: 6 mph from Northeast

Location: Ocala Municipal

Current Time: Oct 25, 2014 at 3:02:03 PM

Latest Report: Oct 25, 2014 at 1:50 PM


Visibility: 10 mi

Pressure: 29.99 "Hg

Humidity: 34%

Dew point: 46 °F

Location of OcalaLocation

Historic Weather in Ocala — Graph

°F

Ocala temperature yesterday

Maximum temperature yesterday: 79 °F (at 2:50 PM)
Minimum temperature yesterday: 50 °F (at 5:35 AM)
Average temperature yesterday: 60 °F

Past Weeks' High & Low Weather Summary

 TemperatureHumidityPressure
High88 °F (Oct 10, 1:50 PM)94% (Oct 11, 1:35 AM)30.12 "Hg (Oct 11, 1:35 AM)
Low46 °F (Oct 25, 5:15 AM)34% (Oct 23, 3:50 PM)29.90 "Hg (Oct 16, 3:50 PM)
Average67 °F77%30.00 "Hg
* Reported Oct 10 1:50 PM — Oct 25 1:50 PM, Ocala, Weather by CustomWeather, © 2014

Note: Actual official high and low records may vary slightly from our data, if they occured in-between our weather recording intervals... More about our weather records

Advertising

Ocala weather history for previous 24 hours

 ConditionsComfort  
Time TempWeatherWind HumidityBarometerVisibility
1:50 PM
Oct 25
77 °FSunny.6 mph34%29.99 "Hg10 mi
12:50 PM75 °FSunny.9 mph36%30.02 "Hg10 mi
11:50 AM73 °FSunny.7 mph41%30.03 "Hg10 mi
10:50 AM72 °FSunny.8 mph47%30.04 "Hg10 mi
9:50 AM64 °FSunny.5 mph73%30.02 "Hg10 mi
8:50 AM52 °FSunny.No wind88%30.01 "Hg10 mi
7:50 AM46 °FClear.3 mph93%30.00 "Hg10 mi
6:50 AM46 °FClear.No wind93%29.99 "Hg10 mi
6:35 AM48 °FClear.No wind87%29.99 "Hg4 mi
6:15 AM48 °FClear.No wind94%29.99 "Hg8 mi
5:55 AM48 °FClear.No wind87%29.99 "Hg7 mi
5:35 AM48 °FClear.No wind87%29.98 "Hg10 mi
5:15 AM46 °FClear.No wind87%29.98 "Hg10 mi
4:55 AM48 °FClear.No wind94%29.97 "Hg1 mi
4:35 AM50 °FClear.No wind88%29.97 "Hg10 mi
4:15 AM50 °FClear.No wind88%29.98 "Hg9 mi
3:55 AM52 °FClear.3 mph94%29.98 "Hg10 mi
3:35 AM52 °FClear.5 mph88%29.98 "Hg10 mi
3:15 AM52 °FClear.5 mph88%29.99 "Hg5 mi
2:55 AM52 °FClear.No wind94%29.98 "Hg6 mi
2:35 AM52 °FClear.No wind88%29.99 "Hg5 mi
1:55 AM54 °FClear.No wind94%30.00 "Hg10 mi
1:35 AM54 °FClear.No wind94%29.99 "Hg10 mi
1:15 AM55 °FClear.3 mph88%30.00 "Hg10 mi
12:55 AM54 °FClear.N/A88%30.00 "Hg10 mi
12:35 AM55 °FClear.5 mph88%30.00 "Hg10 mi
12:15 AM55 °FClear.6 mph88%30.01 "Hg10 mi
11:55 PM
Oct 24
55 °FClear.No wind88%30.01 "Hg10 mi
11:35 PM57 °FClear.No wind82%30.01 "Hg10 mi
10:55 PM57 °FClear.3 mph82%30.01 "Hg10 mi
10:35 PM57 °FClear.No wind82%30.00 "Hg10 mi
10:15 PM59 °FClear.No wind77%30.01 "Hg10 mi
9:55 PM59 °FClear.5 mph77%30.01 "Hg10 mi
9:35 PM59 °FClear.3 mph77%30.00 "Hg10 mi
9:15 PM61 °FClear.No wind72%29.99 "Hg10 mi
8:55 PM63 °FClear.No wind68%29.98 "Hg10 mi
8:35 PM63 °FClear.5 mph68%29.97 "Hg10 mi
7:55 PM64 °FClear.No wind64%29.95 "Hg10 mi
6:50 PM72 °FSunny.3 mph47%29.94 "Hg10 mi
5:50 PM75 °FSunny.8 mph44%29.93 "Hg10 mi
4:50 PM79 °FSunny.7 mph39%29.94 "Hg10 mi
3:50 PM79 °FSunny.6 mph39%29.94 "Hg10 mi
Weather by CustomWeather, © 2014

See weather overviewHow to use our weather pages